Weather History for KOWB - April, 2014

Change the Weather History Date:

Wednesday, April 9, 2014

  Actual Average Record
Temperature  
Mean Temperature 50 °F -  
Max Temperature 61 °F 64 °F 86 °F (1967)
Min Temperature 38 °F 41 °F 24 °F (1985)
Degree Days  
Heating Degree Days 16    
Moisture  
Dew Point 39 °F    
Average Humidity 67    
Maximum Humidity 100    
Minimum Humidity 35    
Precipitation  
Precipitation 0.00 in - - ()
Sea Level Pressure  
Sea Level Pressure 30.06 in    
Wind  
Wind Speed 3 mph (West)    
Max Wind Speed 15 mph    
Max Gust Speed 20 mph    
Visibility 10 miles    
Events      
Averages and records for this station are not official NWS values.
T = Trace of Precipitation, MM = Missing Value Source: NWS Daily Summary

Daily Weather History Graph

Daily Weather History Graph

Search for Another Location

Airport or City:

Trip Planner

Search our weather history database for the weather conditions in past years. The results will help you decide how hot, cold, wet, or windy it might be!

Date:

Astronomy

Apr. 09, 2014 Rise Set
Actual Time 6:22 AM CDT 7:18 PM CDT
Civil Twilight 5:55 AM CDT 7:45 PM CDT
Nautical Twilight 5:23 AM CDT 8:17 PM CDT
Astronomical Twilight 4:50 AM CDT 8:50 PM CDT
Moon 2:12 PM CDT (4/9) 3:05 AM CDT (4/9)
Length of Visible Light 13h 50m
Length of Day
12h 56m
Waxing Gibbous, 72% of the Moon is Illuminated
Apr 9
Waxing Gibbous
Apr 15
Full
Apr 22
Last Quarter
Apr 29
New
May 6
First Quarter

Hourly Weather History & Observations

Time (CDT) Temp. Windchill Dew Point Humidity Pressure Visibility Wind Dir Wind Speed Gust Speed Precip Events Conditions
12:56 AM 45.9 °F - 43.0 °F 90% 29.94 in 10.0 mi Calm Calm - N/A   Clear
1:56 AM 45.0 °F - 41.9 °F 89% 29.95 in 10.0 mi Calm Calm - N/A   Clear
2:56 AM 43.0 °F - 41.9 °F 96% 29.96 in 10.0 mi Calm Calm - N/A   Clear
3:56 AM 43.0 °F - 41.9 °F 96% 29.98 in 10.0 mi Calm Calm - N/A   Clear
4:56 AM 41.0 °F - 41.0 °F 100% 29.99 in 10.0 mi Calm Calm - N/A   Clear
5:56 AM 38.8 °F - 38.8 °F 100% 30.02 in 10.0 mi Calm Calm - N/A   Clear
6:56 AM 39.9 °F - 39.9 °F 100% 30.05 in 10.0 mi Calm Calm - N/A   Clear
7:56 AM 46.9 °F - 41.9 °F 83% 30.07 in 10.0 mi Calm Calm - N/A   Clear
8:56 AM 50.0 °F - 39.9 °F 68% 30.09 in 10.0 mi NNW 6.9 mph - N/A   Clear
9:56 AM 52.9 °F - 41.9 °F 66% 30.11 in 10.0 mi NW 3.5 mph - N/A   Clear
10:56 AM 56.8 °F - 43.0 °F 60% 30.12 in 10.0 mi WSW 6.9 mph - N/A   Clear
11:56 AM 59.9 °F - 45.0 °F 58% 30.12 in 10.0 mi WSW 9.2 mph - N/A   Partly Cloudy
12:56 PM 61.0 °F - 38.8 °F 44% 30.11 in 10.0 mi WSW 11.5 mph 19.6 mph N/A   Partly Cloudy
1:56 PM 61.0 °F - 36.9 °F 41% 30.10 in 10.0 mi West 15.0 mph - N/A   Scattered Clouds
2:56 PM 61.0 °F - 36.9 °F 41% 30.09 in 10.0 mi WSW 11.5 mph - N/A   Partly Cloudy
3:56 PM 61.9 °F - 34.0 °F 35% 30.08 in 10.0 mi West 13.8 mph - N/A   Partly Cloudy
4:56 PM 61.9 °F - 36.0 °F 38% 30.07 in 10.0 mi West 9.2 mph - N/A   Clear
5:56 PM 61.0 °F - 34.0 °F 36% 30.08 in 10.0 mi West 10.4 mph - N/A   Clear
6:56 PM 57.9 °F - 36.9 °F 45% 30.08 in 10.0 mi NW 6.9 mph - N/A   Clear
7:56 PM 54.9 °F - 36.0 °F 49% 30.07 in 10.0 mi Calm Calm - N/A   Clear
8:56 PM 48.9 °F - 41.0 °F 74% 30.08 in 10.0 mi Calm Calm - N/A   Clear
9:56 PM 50.0 °F - 38.8 °F 66% 30.08 in 10.0 mi South 5.8 mph - N/A   Clear
10:56 PM 48.9 °F - 38.8 °F 68% 30.08 in 10.0 mi SSW 6.9 mph - N/A   Clear
11:56 PM 45.9 °F 42.3 °F 38.8 °F 76% 30.08 in 10.0 mi SSW 6.9 mph - N/A   Clear